Regional Weather Roundup
Issued by NWS Mt. Holly, NJ

Home | Current Version | Previous Version | Text Only | Print | Product List | Glossary On
Versions: 1 2 3 4 5 6 7 8 9 10 11 12 13 14 15 16 17 18 19 20 21 22 23 24 25 26 27
000
ASUS41 KPHI 232012
RWRPHI

REGIONAL WEATHER ROUNDUP
NATIONAL WEATHER SERVICE MOUNT HOLLY NJ
300 PM EST TUE JAN 23 2018

NOTE:  "FAIR" INDICATES FEW OR NO CLOUDS BELOW 12,000 FEET WITH NO
SIGNIFICANT WEATHER AND/OR OBSTRUCTIONS TO VISIBILITY.

 * = STATION DOES NOT REPORT PRECIPITATION (E.G. RAIN, SNOW, ETC.)
        OR FOG.

NJZ015>026-232100-
SOUTHERN NEW JERSEY

CITY           SKY/WX    TMP DP  RH WIND       PRES   REMARKS
POMONA         HVY RAIN  60  59  96 W9        29.55R VSB 1
WILDWOOD*      LGT RAIN  57  55  94 W16G22    29.58R FOG
MILLVILLE      LGT RAIN  57  56  96 W5        29.57R
WRIGHTSTOWN    PTSUNNY   58  53  83 W6        29.52F
MOUNT HOLLY    CLOUDY    60  46  59 W6        29.55S
TRENTON        PTSUNNY   61  47  59 W10       29.54S

$$
NJZ001>014-232100-
NORTHERN NEW JERSEY

CITY           SKY/WX    TMP DP  RH WIND       PRES   REMARKS
SUSSEX         PTSUNNY   57  45  64 VRB5      29.52S
ANDOVER*         N/A     55  47  74 VRB3      29.53S
MORRISTOWN     MOSUNNY   61  46  59 W9        29.52F
NEWARK         PTSUNNY   62  47  57 SW12      29.51F
TETERBORO      PTSUNNY   61  47  59 SW3       29.50S
CALDWELL       FAIR      60  47  61 W8        29.51F
SOMERVILLE     FAIR      60  48  64 NW7       29.52S
ALLAIRE*       FAIR      57  52  83 SW6       29.56S
TOMS RIVER*    FAIR      59  54  83 W5        29.55F

$$
PAZ043-044-047-054-055-060>062-066>071-232100-
EASTERN PENNSYLVANIA

CITY           SKY/WX    TMP DP  RH WIND       PRES   REMARKS
PHILADELPHIA   PTSUNNY   61  45  55 W16       29.56R
NORTH PHILA    PTSUNNY   62  47  57 W12       29.56S
BLUE BELL*     PTSUNNY   59  46  63 NW9       29.56S
DOYLESTOWN     PTSUNNY   59  45  59 W10G18    29.54R
PERKASIE*      CLOUDY    57  46  67 NW9       29.57R
POTTSTOWN      CLOUDY    55  44  66 W13G20    29.59R
LANCASTER      CLOUDY    49  47  93 NW9       29.61R
COATESVILLE    CLOUDY    54  48  82 NW16G23   29.61R
READING        RAIN      50  46  86 W10       29.61R
ALLENTOWN      CLOUDY    53  44  71 NW14G23   29.57R
MOUNT POCONO   CLOUDY    44  41  89 W13       29.54R
HAZLETON       DRIZZLE   43  39  87 W5        29.60R
LEHIGHTON      RAIN      50  41  71 W7        29.59R
WILKES BARRE   LGT RAIN  48  41  76 SW6       29.56S

$$
DEZALL-MDZ008-012-015-019-020-232100-
DELAWARE AND EASTERN MARYLAND

CITY           SKY/WX    TMP DP  RH WIND       PRES   REMARKS
WILMINGTON     FAIR      60  47  61 NW10      29.57S
DOVER          MOSUNNY   59  59 100 W6        29.56R
GEORGETOWN     FAIR      69  58  67 SW20G29   29.55F
EASTON         LGT RAIN  61  54  77 CALM      29.62R
ABERDEEN       CLOUDY    61  55  82 NW10G22   29.59R
OCEAN CITY     CLOUDY    52  52 100 SW9G18    29.59F FOG
WALLOPS ISLAND CLOUDY    52  51  97 S17       29.60F FOG
CAMBRIDGE      MOSUNNY   68  57  68 W7        29.56F
SALISBURY      FAIR      67  61  81 SW18G25   29.56F

$$
PAZ001-021-NYZ056-072-MDZ011-DCZ001-232100-
OTHER NEARBY LOCATIONS

CITY           SKY/WX    TMP DP  RH WIND       PRES   REMARKS
HARRISBURG     CLOUDY    51  40  65 W13G22    29.62R
STATE COLLEGE  CLOUDY    41  34  75 W14G26    29.66R
WILLIAMSPORT   FAIR      51  37  58 W13G21    29.58R
BINGHAMTON     PTSUNNY   44  40  85 SW10      29.50S
NEW YORK CITY  PTSUNNY   59  48  67 CALM      29.53F
BALTIMORE      PTSUNNY   58  44  60 W20G26    29.61R
WASHINGTON DC  PTSUNNY   61  45  55 NW21G30   29.63R

$$




USA.gov is the U.S. government's official web portal to all federal, state and local government web resources and services.